Location: Rice Hill
(18.0529°N, 63.0296°W)
Time: 04:00:13
(UTC+00:00)

Daily predictions for brighter satellites

Satellite Brightness Start Highest point End
(mag) Time Altitude Azimuth Time Altitude Azimuth Time Altitude Azimuth
Centaur D-1AR AC-40 2.4 00:00:29 10° W 00:11:57 74° N 00:11:57 74° N
ARIANE 5 R/B 3.9 00:07:41 10° WSW 00:29:09 38° SSW 00:29:39 38° S
Intelsat 5-1 Rocket 3.6 00:27:09 10° WSW 00:41:41 75° W 00:41:41 75° W
Cosmos 2322 Rocket 4.3 07:13:39 22° NE 07:13:39 22° NE 07:15:56 10° NE
SL-16 R/B 4.2 07:23:35 22° NNE 07:23:35 22° NNE 07:25:30 10° NNE
CZ-2C R/B 3.5 07:41:55 10° NNE 07:45:35 43° NE 07:45:35 43° NE
H-2A R/B 3.7 07:49:01 10° SE 07:52:48 32° ENE 07:56:40 10° NNE
Yuri Rocket 4.3 07:58:18 40° NE 07:58:18 40° NE 08:01:37 10° ENE
SJ 16-02 3.7 07:54:40 10° NNE 07:58:05 22° ENE 08:01:30 10° SE
Cosmos 1605 Rocket 4.2 07:54:09 10° N 08:00:31 71° E 08:06:51 10° S
Landsat 5 4.5 07:59:26 10° SSE 08:03:45 49° ENE 08:08:06 10° N
Cosmos 540 Rocket 3.7 08:04:41 63° SE 08:05:08 67° ESE 08:10:15 10° NNE
FUSE 3.8 08:13:46 83° SSW 08:13:46 83° SSW 08:19:09 10° ESE
Cosmos 1727 Rocket 3.9 08:18:43 52° SW 08:19:55 61° W 08:26:10 10° N
CSL-04 DEB 4.5 08:18:11 10° SSE 08:22:22 81° E 08:26:40 10° N
ALOS 3.0 08:23:01 10° NNE 08:27:33 52° E 08:32:04 10° S
Hubble Space Telescope 2.0 08:29:49 29° S 08:30:39 31° SSE 08:34:19 10° E
Cosmos 1484 Rocket 3.4 08:26:43 10° NNE 08:30:39 58° E 08:34:34 10° S
Cosmos 1437 Rocket 4.3 08:28:23 10° SSE 08:31:50 35° E 08:35:16 10° NNE
OAO 3 Rocket 3.6 08:32:01 40° SSW 08:33:35 60° SE 08:38:27 10° ENE
Meteor 1-27 Rocket 3.9 08:31:37 33° SW 08:34:04 53° W 08:39:51 10° N
ADEOS Rocket 3.9 08:27:48 10° SSE 08:34:58 60° ENE 08:41:27 10° N
Cosmos 1536 4.2 08:33:20 10° NNE 08:37:10 41° E 08:41:00 10° SSE
Cosmos 2360 Rocket 2.2 08:35:23 35° SW 08:37:37 58° WNW 08:43:11 10° N
Meteor 1-11 Rocket 3.9 08:32:30 10° N 08:38:09 71° E 08:43:41 10° SSE
Meteor 1-31 Rocket 3.0 08:38:19 10° NNE 08:42:08 67° E 08:45:58 10° S
Delta 142 4.2 08:40:30 31° SW 08:43:42 76° SSE 08:48:49 10° ENE
deb Chang Zheng 4 3.7 08:45:13 10° N 08:49:19 49° WNW 08:51:35 24° SW
Star 63D 3.6 08:48:49 48° WNW 08:49:28 80° NNE 08:51:47 10° ESE
METEOR-M 4.2 08:44:57 10° NNE 08:50:18 83° ESE 08:55:38 10° S
Cosmos 1898 Rocket 4.1 08:46:24 10° N 08:51:36 60° ENE 08:56:49 10° SSE
Cosmos 2208 Rocket 4.2 08:49:08 22° SW 08:52:15 46° WNW 08:57:15 10° N
Cosmos 1459 Rocket 4.4 08:46:20 10° N 08:52:18 63° E 08:58:16 10° SSE
Cosmos 2322 Rocket 3.7 08:55:33 17° WNW 08:55:33 17° WNW 08:58:26 10° NNW
Cosmos 1666 2.7 08:56:35 10° NNW 09:00:15 50° W 09:03:53 10° S
FENGYUN 3A 3.7 08:56:12 10° N 09:01:29 59° WNW 09:06:48 10° SSW
Cosmos 2263 Rocket 2.2 09:03:34 10° NNW 09:09:08 60° WSW 09:14:43 10° S
USA 32 4.3 09:04:58 10° NNW 09:09:54 42° W 09:14:48 10° SSW
Delta 202 3.5 09:07:57 19° W 09:11:53 86° N 09:17:20 10° E
GPS 2-15 Rocket1 3.0 09:09:07 19° W 09:12:27 89° SSW 09:17:07 10° E
GEOS 3 Rocket 4.2 09:08:53 10° NE 09:14:10 61° ESE 09:19:20 10° SSW
H-2A R/B (2) 3.9 09:10:05 16° WSW 09:14:27 34° S 09:38:29 10° SE
DELTA 4 R/B 3.2 09:03:14 11° WNW 09:16:23 63° N 09:19:54 10° E
Cosmos 1937 Rocket 3.6 09:11:57 10° N 09:17:05 77° ENE 09:22:12 10° SSE
Chandra Rocket (1) 3.0 09:06:44 10° WNW 09:18:34 79° NNE 09:22:19 10° ESE
Cosmos 1733 Rocket 2.9 09:14:54 10° N 09:19:11 68° W 09:23:27 10° S
GPS 2-18 Rocket1 3.2 09:18:22 15° WNW 09:21:36 74° N 09:25:34 10° E
Intercosmos 25 4.4 09:18:31 10° SSW 09:24:25 39° W 09:28:21 10° NNW
Cosmos 2173 Rocket 4.1 09:19:07 10° NNW 09:25:20 60° W 09:31:35 10° S
Cosmos 2219 Rocket 2.2 09:22:26 10° SSW 09:28:00 64° WNW 09:33:37 10° N
CZ-4B R/B 1.9 09:25:40 10° SSW 09:28:26 32° W 09:31:17 10° NNW
H-2A R/B 3.8 09:27:08 10° WSW 09:28:42 12° W 09:30:16 10° WNW
PSLV R/B 4.4 09:26:25 12° W 09:29:35 88° S 09:44:06 10° E
Delta 2 Rocket 2.8 09:29:09 10° WSW 09:32:26 65° NNW 09:35:48 10° NE
SJ-12 4.4 09:29:40 10° N 09:33:30 38° WNW 09:37:20 10° SW
COSMOS 2428 2.7 09:28:47 10° SSW 09:34:24 66° WNW 09:40:04 10° N
SJ 16-02 2.8 09:33:36 10° WNW 09:36:23 17° W 09:39:09 10° SW
Cosmos 1689 Rocket 1.9 09:35:11 10° S 09:38:06 83° W 09:41:02 10° NNW
Cosmos 1743 2.6 09:35:46 10° N 09:39:32 71° W 09:43:19 10° S
Cosmos 2237 Rocket 3.7 09:36:34 10° S 09:41:53 43° ESE 09:47:11 10° NE
CZ-3 R/B 3.9 09:30:10 10° SW 09:43:10 27° SSE 09:48:22 10° ESE
